{"data":{"norad_id":57470,"intl_designator":"2023-107P","name":"STARLINK-30186","alt_names":[],"object_type":"PAYLOAD","status":"ACTIVE","operator":null,"country":"US","launch_date":"2023-07-28","launch_site_code":"AFETR","launch_vehicle":null,"mission":null,"orbit_class":"UNKNOWN","rcs_meters":null,"size_class":null,"mass_kg":null,"dimensions":null,"purposes":["comms"],"wikipedia_slug":null,"has_3d_model":false,"image_url":null,"decayed_at":null,"tle_current":{"epoch":"2026-09-20T03:40:35.184864Z","epoch_age_seconds":158001,"freshness":"FRESH","line1":"1 57470U 23107P   26263.15318501  .00070614  00000+0  59123-3 0  9999","line2":"2 57470  42.9982 299.7140 0003718  61.7254 298.3988 15.69057776175097","mean_motion":15.69057776,"eccentricity":0.0003718,"inclination_deg":42.9982,"raan_deg":299.714,"arg_perigee_deg":61.7254,"mean_anomaly_deg":298.3988,"bstar":0.00059123,"rev_number":17509,"period_min":91.774823210844,"perigee_km":359.0879804282,"apogee_km":364.09964426026,"semimajor_km":6739.7308123442,"source":"CELESTRAK","updated_at":"2026-09-21T09:00:33.630848Z"}}}